DW9761 Weather Reports


Display with metric or nautical units.
time (UTC)temp
F
wind
direction
speed
MPH
gust
MPH
rain 1hr
in
rain 24hr
in
rain mn
in
humidity
%
barometer
mb
20260905234539 85 5 3.0 4.0 0.00 0.00 0.00 79 1011.3
20260905233039 87 28 2.0 5.0 0.00 0.00 0.00 76 1011.3
20260905231543 87 19 3.0 9.0 0.00 0.00 0.00 75 1011.1
20260905230039 88 5 3.0 8.0 0.00 0.00 0.00 74 1011.0
20260905224544 89 5 2.0 9.0 0.00 0.00 0.00 74 1011.0
20260905223041 89 5 3.0 10.0 0.00 0.00 0.00 73 1011.0
20260905221541 90 40 3.0 8.0 0.00 0.00 0.00 72 1011.0
20260905220036 90 336 4.0 8.0 0.00 0.00 0.00 73 1011.0
20260905214535 90 22 2.0 6.0 0.00 0.00 0.00 72 1010.9
20260905213040 90 51 1.0 9.0 0.00 0.00 0.00 72 1010.9
20260905211542 90 346 2.0 5.0 0.00 0.00 0.00 72 1010.9
20260905210035 90 9 2.0 8.0 0.00 0.00 0.00 70 1011.1
20260905204532 90 15 3.0 8.0 0.00 0.00 0.00 71 1011.2
20260905203045 90 48 4.0 9.0 0.00 0.00 0.00 71 1011.1
20260905201549 91 38 3.0 12.0 0.00 0.00 0.00 71 1011.1
20260905200030 91 9 3.0 11.0 0.00 0.00 0.00 67 1011.2
20260905194528 91 25 2.0 8.0 0.00 0.00 0.00 70 1011.3
20260905193032 92 328 4.0 10.0 0.00 0.00 0.00 66 1011.2
20260905191527 91 318 4.0 11.0 0.00 0.00 0.00 68 1011.5
20260905190021 92 329 4.0 10.0 0.00 0.00 0.00 67 1011.6
20260905184518 91 325 4.0 6.0 0.00 0.00 0.00 66 1011.8
20260905183019 91 335 2.0 6.0 0.00 0.00 0.00 68 1011.9
20260905181517 91 50 3.0 11.0 0.00 0.00 0.00 69 1012.0
20260905180016 91 16 4.0 10.0 0.00 0.00 0.00 68 1012.1
20260905174515 91 303 3.0 10.0 0.00 0.00 0.00 70 1012.0
20260905173011 90 338 3.0 10.0 0.00 0.00 0.00 70 1012.1
20260905171508 90 279 4.0 11.0 0.00 0.00 0.00 69 1012.2
20260905170009 90 315 2.0 10.0 0.00 0.00 0.00 71 1012.4
20260905164504 89 355 2.0 11.0 0.00 0.00 0.00 72 1012.5
20260905163003 89 325 4.0 11.0 0.00 0.00 0.00 71 1012.5
20260905161558 89 355 3.0 8.0 0.00 0.00 0.00 74 1012.5
20260905160056 89 281 3.0 9.0 0.00 0.00 0.00 74 1012.5
20260905154552 88 344 2.0 6.0 0.00 0.00 0.00 75 1012.4
20260905153047 87 326 2.0 6.0 0.00 0.00 0.00 75 1012.5
20260905151548 87 292 1.0 5.0 0.00 0.00 0.00 79 1012.5
20260905150043 86 300 2.0 6.0 0.00 0.00 0.00 79 1012.3
20260905144539 85 302 1.0 6.0 0.00 0.00 0.00 79 1012.2
20260905143035 84 289 1.0 4.0 0.00 0.00 0.00 82 1012.2
20260905141530 83 240 1.0 4.0 0.00 0.00 0.00 83 1012.2
20260905140026 82 254 1.0 4.0 0.00 0.00 0.00 86 1012.3
20260905134528 81 325 0.0 3.0 0.00 0.00 0.00 86 1012.5
20260905133018 80 271 0.0 2.0 0.00 0.00 0.00 88 1012.2
20260905131516 78 273 0.0 3.0 0.00 0.00 0.00 93 1012.3
20260905130010 77 178 0.0 2.0 0.00 0.00 0.00 96 1012.2
20260905124513 75 177 0.0 1.0 0.00 0.00 0.00 97 1012.1
20260905123001 74 177 0.0 3.0 0.00 0.00 0.00 97 1012.1
20260905121557 74 202 2.0 7.0 0.00 0.00 0.00 97 1011.9
20260905120054 73 192 3.0 6.0 0.00 0.00 0.00 97 1011.7
20260905114553 73 185 2.0 5.0 0.00 0.00 0.00 98 1011.6
20260905113150 73 180 3.0 5.0 0.00 0.00 0.00 97 1011.6
20260905111553 73 144 0.0 0.0 0.00 0.00 0.00 97 1011.5
20260905110049 73 136 0.0 0.0 0.00 0.00 0.00 97 1011.4
20260905104603 74 136 0.0 0.0 0.00 0.00 0.00 96 1011.5
20260905103045 74 136 0.0 0.0 0.00 0.00 0.00 95 1011.6
20260905101543 75 136 0.0 1.0 0.00 0.00 0.00 95 1011.8
20260905100044 75 136 0.0 0.0 0.00 0.00 0.00 94 1011.6
20260905094540 76 136 0.0 1.0 0.00 0.00 0.00 93 1011.6
20260905093039 76 136 0.0 0.0 0.00 0.00 0.00 93 1011.5
20260905091539 77 227 0.0 2.0 0.00 0.00 0.00 92 1011.5
20260905090056 77 227 0.0 2.0 0.00 0.00 0.00 91 1011.4
20260905084537 77 233 0.0 3.0 0.00 0.00 0.00 91 1011.4
20260905083035 77 215 1.0 3.0 0.00 0.00 0.00 92 1011.6
20260905081534 76 200 2.0 3.0 0.00 0.00 0.00 92 1011.5
20260905080033 76 190 1.0 3.0 0.00 0.00 0.00 94 1011.6
20260905074532 76 184 0.0 0.0 0.00 0.00 0.00 94 1011.7
20260905073034 76 184 0.0 3.0 0.00 0.00 0.00 95 1011.8
20260905071529 76 196 1.0 3.0 0.00 0.00 0.00 97 1012.0
20260905070028 76 201 1.0 2.0 0.00 0.00 0.00 97 1011.9
20260905064530 76 130 1.0 2.0 0.00 0.00 0.00 98 1012.0
20260905063027 76 130 0.0 0.0 0.00 0.00 0.00 97 1012.1
20260905061535 76 130 0.0 1.0 0.00 0.00 0.00 97 1012.2
20260905060025 76 130 1.0 3.0 0.00 0.00 0.00 97 1012.1
20260905054531 76 121 0.0 0.0 0.00 0.00 0.00 97 1012.1
20260905053024 76 121 0.0 0.0 0.00 0.00 0.00 96 1012.1
20260905051522 76 121 0.0 0.0 0.00 0.00 0.00 96 1012.0
20260905050018 76 121 0.0 0.0 0.00 0.00 0.00 95 1012.1
20260905044525 77 309 0.0 0.0 0.00 0.00 0.00 95 1012.1
20260905043017 77 309 0.0 0.0 0.00 0.00 0.00 94 1011.9
20260905041520 77 309 0.0 0.0 0.00 0.00 0.00 95 1011.9
20260905040016 77 309 0.0 0.0 0.00 0.00 0.00 95 1011.9
20260905034516 77 309 0.0 0.0 0.00 0.00 0.00 94 1012.1
20260905033016 78 309 0.0 0.0 0.00 0.00 0.00 93 1012.1
20260905031514 78 309 0.0 0.0 0.00 0.00 0.00 91 1012.2
20260905030013 79 309 0.0 0.0 0.00 0.00 0.00 89 1012.2
20260905024513 80 309 0.0 0.0 0.00 0.00 0.00 89 1012.1
20260905023013 80 309 0.0 0.0 0.00 0.00 0.00 87 1012.0
20260905021520 80 309 0.0 0.0 0.00 0.00 0.00 86 1011.9
20260905020011 81 309 0.0 0.0 0.00 0.00 0.00 85 1011.7
20260905014511 81 309 0.0 0.0 0.00 0.00 0.00 85 1011.4
20260905013010 82 309 0.0 0.0 0.00 0.00 0.00 86 1011.3
20260905011510 82 309 0.0 0.0 0.00 0.00 0.00 86 1011.2
20260905010011 83 309 0.0 0.0 0.00 0.00 0.00 84 1011.2
20260905004509 84 309 0.0 0.0 0.00 0.00 0.00 83 1011.1
20260905003009 85 309 0.0 0.0 0.00 0.00 0.00 82 1011.1
20260905001508 87 309 0.0 0.0 0.00 0.00 0.00 80 1011.1
20260905000008 89 309 0.0 0.0 0.00 0.00 0.00 74 1011.1